Volver al catálogo

BREEZE-M DEB

TANK

ActivoHEO
NORAD 42944·DEBRIS·🇷🇺 Russia

Lanzado Sep 28, 2017 desde Baikonur Cosmodrome

Loading…

Próximos Pases (próximas 24 horas)

TLE

ActualizadoSource: Space-Track

Época: Sep 13, 2026, 08:08 UTC

1 42944U 17057C   26256.33925855  .00003402  00000-0  89953-3 0  9990
2 42944  49.6359 244.3737 5101115   9.5515 357.3112  5.41846531172931

Sigue BREEZE-M DEB en tiempo real con AllMySat

Download on the App Store